www.pogodaiklimat.ru

Погода и климат >> Архив погоды >> Индонезия >> Каимана


ПОГОДА в Каимана

  • Прогноз погоды в Каимана
  • Монитор погоды в Каимана

АРХИВ ПОГОДЫ в Каимана

Время (UTC), дата Ветер
(напр.,м/с)
 
Видим.   Явления Облачность Т
(С)
Тd
(С)
f
(%)
Тe
(С)
Тes
(С)
Комфортность P
(гПа)
Po
(гПа)
Тmin
(С)
Tmax
(С)
R
(мм)
R24
(мм)
S
(см)
06 9.06 С 2 5000 м в посл. час дождь 10/6 450 м
[Cu Sc As op Ci sp]
+25.2 +24.0 93 +35 +36 очень
душно
1010.0 1009.1 14
09 9.06 штиль 0 8000 м осадки на расстоянии 9/5 450 м
[Cu med, cong Ac As Ci sp]
+25.4 +24.2 93 +35 +35 очень
душно
1008.9 1008.0
12 9.06 штиль 0 5000 м осадки на расстоянии 10/8 450 м
[Cu Sc As op]
+25.1 +23.9 93 +34 +34 очень
душно
1010.2 1009.3 +27.5
15 9.06 штиль 0 5000 м осадки на расстоянии 10/8 450 м
[Cu Sc As op]
+25.5 +24.1 92 +35 +35 очень
душно
1010.0 1009.1
18 9.06 штиль 0 5000 м 10/8 450 м
[Cu Sc As op]
+24.9 +24.2 96 +34 +34 очень
душно
1008.5 1007.6
21 9.06 штиль 0 5000 м в посл. час ливневой дождь 9/6 450 м
[Frnb As op]
+25.3 +24.3 94 +35 +35 очень
душно
1009.2 1008.3 0.2
00 10.06 Ю 3 8000 м {ливн. осадки, туман} 5/3 450 м
[Cu med, cong As trans Ci fib]
+27.6 +24.6 84 +39 +44 очень
душно
1010.2 1009.3 +24.6 17
03 10.06 Ю 3 9000 м 8/5 450 м
[Cu med, cong As op]
+28.9 +25.1 80 +42 +46 опасность
перегрева
1009.5 1008.6
06 10.06 Ю 2 10 км 8/5 450 м
[Cu med, cong Ac As Ci fib]
+29.2 +24.7 77 +42 +45 опасность
перегрева
1007.0 1006.1
09 10.06 штиль 0 8000 м 9/5 450 м
[Cu med, cong Ac As Ci fib]
+27.3 +24.9 87 +39 +39 очень
душно
1007.8 1006.9
12 10.06 штиль 0 5000 м дождь 10/8 450 м
[Cb cap As op]
+26.4 +25.7 96 +39 +39 очень
душно
1011.4 1010.5 +29.9 4
15 10.06 штиль 0 5000 м в посл. час дождь 10/8 450 м
[Cu med, cong As op]
+25.5 +24.8 96 +36 +36 очень
душно
1010.9 1010.0 6
18 10.06 штиль 0 5000 м в посл. час дождь 10/8 450 м
[Cu Sc As op]
+24.8 +24.5 98 +35 +35 очень
душно
1008.3 1007.4 0.4
21 10.06 0 осадки на расстоянии н/о +24.2 1010.7 1009.8
00 11.06 ЮВ 2 9000 м 8/4 450 м
[Cu med, cong Ac trans Ci fib]
+27.4 +25.0 87 +39 +43 очень
душно
1011.9 1011.0 +24.6 10
03 11.06 ЮЗ 2 9000 м 6/3 450 м
[Cu med, cong Ac trans Ci fib]
+29.0 +25.5 81 +43 +53 опасность
перегрева
1010.7 1009.8
06 11.06 З 2 9000 м 8/4 450 м
[Cu Sc Ac trans Ci fib]
+30.2 +23.5 67 +41 +45 опасность
перегрева
1008.4 1007.5
09 11.06 Ю 2 7000 м 9/5 450 м
[Cu Sc Ac trans Ci fib]
+27.8 +24.9 84 +40 +40 очень
душно
1009.2 1008.3
12 11.06 штиль 0 6000 м 9/5 450 м
[Cu Sc Ac trans Ci fib]
+27.4 +24.7 85 +39 +39 очень
душно
1011.9 1011.0 +30.6
15 11.06 В 2 5000 м в посл. час дождь 10/6 450 м
[Cb cap As op]
+25.6 +24.2 92 +35 +35 очень
душно
1012.0 1011.1 0.6
18 11.06 штиль 0 5000 м {дождь} 10/6 450 м
[Cu Sc As op]
+25.0 +24.0 94 +34 +34 очень
душно
1010.9 1010.0 0.6
21 11.06 штиль 0 6000 м в посл. час ливневой дождь 10/6 450 м
[Cu Sc As op]
+25.8 +24.8 94 +37 +37 очень
душно
1011.4 1010.5 0.0
00 12.06 штиль 0 7000 м осадки на расстоянии 9/5 450 м
[Cu Sc Ac trans Ci fib]
+27.7 +24.9 85 +40 +43 очень
душно
1013.3 1012.4 +24.9 0.2 0.8
03 12.06 Ю 3 10 км 6/4 450 м
[Cu Sc Ac trans Ci fib]
+29.3 +25.5 80 +43 +50 опасность
перегрева
1011.4 1010.5
06 12.06 ЮВ 3 10 км 8/4 450 м
[Cu Sc Ac trans Ci fib]
+27.6 +25.2 87 +40 +43 очень
душно
1009.2 1008.2
09 12.06 Ю 2 7000 м слаб. дождь 8/4 450 м
[Cu Sc As op Ci fib]
+27.2 +25.1 88 +39 +39 очень
душно
1010.4 1009.5 0.0
12 12.06 Ю 3 6000 м слаб. дождь 8/4 450 м
[Cu Sc As op Ci fib]
+26.4 +25.2 93 +38 +38 очень
душно
1012.0 1011.1 +29.6 0.2
15 12.06 штиль 0 5000 м осадки на расстоянии 9/5 450 м
[Cu Sc As op]
+26.0 +24.5 91 +36 +36 очень
душно
1011.5 1010.6 2
18 12.06 Ю 2 5000 м {дождь} 9/5 450 м
[Cu Sc As op]
+26.2 +24.1 88 +36 +36 очень
душно
1009.9 1009.0 2
21 12.06 Ю 2 6000 м 8/4 450 м
[Cu Sc Ac trans Ci fib]
+25.8 +24.0 90 +36 +36 очень
душно
1010.0 1009.1
00 13.06 Ю 2 8000 м {дождь} 9/5 450 м
[Cu Sc As op Ci fib]
+27.7 +24.5 83 +39 +42 очень
душно
1011.3 1010.4 +25.8 4
03 13.06 Ю 3 10 км 9/5 450 м
[Cu Sc As op Ci fib]
+28.7 +24.9 80 +41 +46 опасность
перегрева
1010.1 1009.2
06 13.06 Ю 4 10 км 6/4 450 м
[Cu Sc Ac trans Ci sp]
+29.2 +25.2 79 +42 +45 опасность
перегрева
1007.7 1006.8
09 13.06 штиль 0 7000 м 9/5 450 м
[Cu Sc As op Ci fib]
+27.0 +24.5 86 +38 +38 очень
душно
1008.4 1007.5
12 13.06 Ю 2 5000 м осадки на расстоянии 10/6 450 м
[Cu Sc As op]
+26.9 +25.1 90 +39 +39 очень
душно
1010.8 1009.9 +29.6
15 13.06 ЮВ 3 5000 м в посл. час дождь 10/6 450 м
[Cu Sc As op]
+26.2 +25.0 93 +37 +37 очень
душно
1010.6 1009.7 0.2
18 13.06 ЮВ 3 5000 м в посл. час дождь 10/6 450 м
[Cu Sc As op]
+25.8 +24.3 91 +36 +36 очень
душно
1009.0 1008.1 5
21 13.06 ЮВ 2 6000 м осадки на расстоянии 9/5 450 м
[Cu Sc As op]
+26.0 +23.6 87 +35 +35 очень
душно
1009.7 1008.8
00 14.06 Ю 3 9000 м {дождь} 8/4 450 м
[Cu Sc Ac trans Ci fib]
+28.1 +24.5 81 +40 +42 очень
душно
1010.8 1009.9 +25.5 5
03 14.06 ЮВ 3 10 км 5/3 480 м
[Cu med, cong Ac trans Ci fib]
+28.6 +25.0 81 +41 +51 опасность
перегрева
1009.4 1008.5
06 14.06 Ю 3 10 км 6/4 450 м
[Cu Sc Ac trans Ci fib]
+28.8 +25.4 82 +42 +46 опасность
перегрева
1007.3 1006.4
09 14.06 ЮВ 4 7000 м осадки на расстоянии 8/4 450 м
[Cu Sc Ac trans Ci fib]
+26.8 +24.1 85 +37 +37 очень
душно
1008.0 1007.1
12 14.06 ЮВ 3 5000 м осадки на расстоянии 9/5 450 м
[Cu Sc As op]
+26.6 +24.2 87 +37 +37 очень
душно
1010.0 1009.1 +29.4 0.2
15 14.06 ЮВ 2 5000 м осадки на расстоянии 9/5 450 м
[Cu Sc As op]
+26.2 +23.5 85 +36 +36 очень
душно
1009.7 1008.8
18 14.06 ЮВ 3 5000 м в посл. час дождь 10/6 450 м
[Cu Sc As op]
+26.6 +23.0 81 +36 +36 очень
душно
1008.8 1007.9 0.2
21 14.06 штиль 0 6000 м 9/5 450 м
[Cu Sc As op Ci fib]
+26.0 +23.2 85 +35 +35 очень
душно
1009.9 1009.0
00 15.06 Ю 3 8000 м {дождь} 9/5 450 м
[Cu Sc As op Ci fib]
+26.7 +24.2 86 +37 +39 очень
душно
1011.9 1011.0 +26.1 0.4
03 15.06 Ю 2 10 км 8/4 450 м
[Cu Sc As op Ci fib]
+27.8 +24.8 84 +40 +47 очень
душно
1010.7 1009.8
06 15.06 ЮВ 3 7000 м осадки на расстоянии 9/5 450 м
[Cu Sc As op Ci fib]
+27.4 +24.3 83 +38 +41 очень
душно
1008.7 1007.8
09 15.06 Ю 2 6000 м 9/5 450 м
[Cu Sc As op Ci fib]
+26.7 +23.8 84 +37 +37 очень
душно
1009.3 1008.4
12 15.06 ЮВ 2 5000 м осадки на расстоянии 9/5 450 м
[Cu Sc As op Ci fib]
+26.1 +24.5 91 +37 +37 очень
душно
1011.6 1010.7 +28.4
15 15.06 ЮВ 3 5000 м слаб. дождь 10/6 450 м
[Cu Sc As op]
+25.2 +24.2 94 +35 +35 очень
душно
1011.7 1010.8 1
18 15.06 ЮВ 2 4000 м слаб. дождь 10/6 450 м
[Cu Sc As op]
+24.2 +23.4 95 +32 +32 очень
душно
1010.5 1009.6 2
21 15.06 ЮВ 3 6000 м осадки на расстоянии 9/5 450 м
[Cu Sc As op]
+24.4 +22.8 91 +32 +32 очень
душно
1010.7 1009.8 0.2
00 16.06 Ю 4 9000 м {дождь} 9/5 450 м
[Cu Sc Ac trans Ci sp]
+27.0 +23.0 79 +36 +38 очень
душно
1012.2 1011.3 +24.2 3

 

Местоположение метеостанции Каимана (Индонезия): широта -3.67 долгота 133.75 высота над уровнем моря 3 м.

В архиве по умолчанию представлена погода в Каимана за последнюю неделю. Архивные данные за месяц целиком и за предыдущие месяцы, начиная с января 2011 года, Вы можете получить, выбрав интересующий диапазон дат из раскрывающегося списка и нажав кнопку "Ввод!".


*Определитесь, кто Вы:
робот инопланетянин человек

Внимание! Время в таблицах - всемирное. Для получения местного времени необходимо прибавить поправку, которая равна 9 ч.

Смотрите также архив погоды в соседних городах и на ближайших метеорологических станциях:

Погода в Факфаке (Индонезия) (185 км)
Погода в Набире (Индонезия) (198 км)
Погода в Туале (Индонезия) (250 км)
Погода в Энаротали (Индонезия) (292 км)
Погода в Маноквари (Индонезия) (312 км)
Погода в Гесере (Индонезия) (324 км)
Погода в Серуи (Индонезия) (341 км)
Погода в Биаке (Индонезия) (381 км)
Погода в Аэропорту Соронг-Джефман (Индонезия) (423 км)
Погода в Коконао (Индонезия) (436 км)

Пояснения к столбцам:

Ветер - указаны скорость ветра в м/с - средняя за 10 мин, порывы в срок и между сроками (в фигурных скобках) и направление, откуда дует ветер: С - северный, СВ - северо-восточный, В - восточный, ЮВ - юго-восточный, Ю - южный, ЮЗ - юго-западный, З - западный, СЗ - северо-западный.
Видимость - горизонтальная дальность видимости в метрах или километрах. При видимости от 1 до 10 км при отсутствии осадков обычно наблюдается дымка, при ухудшении видимости до 1 км и менее - туман. В сухую погоду видимость может ухудшаться дымом, пылью или мглою.
Явления - указаны атмосферные явления, наблюдавшиеся в срок или в последний час перед сроком; фигурными скобками обозначены явления, наблюдавшиеся между сроками (за 1-3 часа до срока); квадратными скобками обозначены град или гололедные отложения с указанием их диаметра в мм.
Облачность - указаны через наклонную черту общая и нижняя облачность в баллах и высота нижней границы облаков в метрах; квадратными скобками обозначены формы облаков: Ci - перистые, Cs - перисто-слоистые, Cc - перисто-кучевые, Ac - высококучевые, As - высокослоистые, Sc - слоисто-кучевые, Ns - слоисто-дождевые, Cu - кучевые, Cb - кучево-дождевые. Подробнее классификацию облаков см. в Атласе облаков (PDF).
T - Температура воздуха - температура, измеренная на высоте 2 м над землей.
Td - Температура точки росы - температура, при понижении до которой содержащийся в воздухе водяной пар достигнет насыщения.
f - Относительная влажность воздуха - влажноcть воздуха, измеренная на высоте 2 м над землей.
Te - Эффективная температура - температура, которую ощущает одетый по сезону человек в тени. Характеристика душности погоды. При расчете учитывается влияние влажности воздуха и скорости ветра на теплоощущения человека.
Tes - Эффективная температура на солнце - температура, которую ощущает человек, с поправкой на солнечный нагрев. Характеристика знойности погоды. Зависит от высоты солнца над горизонтом, облачности и скорости ветра. Ночью, в пасмурную погоду, а также при ветре 12 м/с и более поправка равна нулю.
P - Атмосферное давление - приведенное к уровню моря атмосферное давление.
Po - Атмосферное давление - измеренное на уровне метеостанции атмосферное давление.
Tmin - Минимальная температура - минимум температуры воздуха на высоте 2 м над землей.
Tmax - Максимальная температура - максимум температуры воздуха на высоте 2 м над землей.
R - Количество осадков - Количество выпавших осадков за период времени, мм. При наведении курсора мыши на число - период времени, за который выпало указанное количество осадков.
R24 - Количество осадков - Количество выпавших осадков за 24 часа, мм.
S - Снежный покров - Высота снежного покрова, см. При наведении курсора мыши на число - состояние снежного покрова и степень покрытия местности в баллах.